sat.trackr.live / text

‹ back to catalog

PUNCH-WFI 3 (SMEX 15D)

NORAD 63180 · 2025-047C

PAYLOAD ACTIVE UNKNOWN

§ Identity

Operator
Country
US
Launch date
2025-03-12
Launch site
AFWTR
Launch vehicle
Mass (kg)
RCS (m²)

External: N2YO · Heavens-Above · Gunter

§ Orbital elements

Epoch: 2026-09-22T11:09:51.011136Z

Period
97.66 min
Inclination
97.9566°
Eccentricity
0.0009254
Mean motion
14.74434362 rev/d
Perigee alt
640.4 km
Apogee alt
653.4 km
Semi-major
7,025.1 km
B*
5.7612e-5
RAAN
88.7408°
Arg perigee
209.7870°
Mean anomaly
150.2813°
Rev number
8,239

§ Raw data

PUNCH-WFI 3 (SMEX 15D)1 63180U 25047C   26265.46517374  .00000333  00000+0  57612-4 0  99972 63180  97.9566  88.7408 0009254 209.7870 150.2813 14.74434362 82390

JSON: /api/v1/satellites/63180 · /tle

For live sub-satellite position, see the globe view (requires WebGL).

§ Visibility from observer

Set your observer location to see the next 7 days of passes ≥ 10°. The values pass through the URL so the page stays shareable.

No JS? Fill the form by hand. The geolocation button needs JavaScript.